Preview of NWS' New Version of Forecast
This preview is not operational and should not be used for support decisions.

Regional Weather Roundup (RWR)

Issued by National Weather Service (NWS)

                            
000
ASUS46 KPQR 232210
RWROR 

OREGON REGIONAL WEATHER ROUNDUP
NATIONAL WEATHER SERVICE PORTLAND OR
300 PM PDT SUN JUN 23 2019

NOTE: "FAIR" INDICATES FEW OR NO CLOUDS BELOW 12,000 FEET WITH
NO SIGNIFICANT WEATHER AND/OR OBSTRUCTIONS TO VISIBILITY.

ORZ001>013-232300-
NORTHWEST OREGON

  
CITY           SKY/WX    TMP DP  RH WIND       PRES   REMARKS
ASTORIA        CLOUDY    60  49  66 W10G22    30.23F                  
TILLAMOOK      CLOUDY    63  52  67 SW9       30.25S                  
NEWPORT        SUNNY     59  52  77 NW12      30.27S                  
PORTLAND       PTSUNNY   69  47  45 N8        30.19F                  
VANCOUVER WA   CLOUDY    67  47  48 VRB3      30.18F                  
SCAPPOOSE      CLOUDY    63  50  62 NE6       30.19F                  
HILLSBORO      CLOUDY    68  47  46 NW7       30.18F                  
AURORA         CLOUDY    70  48  45 N5        30.19F                  
MCMINNVILLE    CLOUDY    68  47  46 W8        30.18F                  
SALEM          PTSUNNY   67  46  47 W7        30.17F                  
CORVALLIS      MOSUNNY   72  50  45 CALM      30.18F                  
EUGENE         MOSUNNY   75  47  36 VRB3      30.16F                  
$$

ORZ021-028-232300-
SOUTHWEST OREGON

  
CITY           SKY/WX    TMP DP  RH WIND       PRES   REMARKS
NORTH BEND     SUNNY     63  50  62 N21       30.22F                  
BROOKINGS      SUNNY     79  51  37 NW14G22   30.06F                  
ROSEBURG       SUNNY     78  45  30 VRB6      30.14F                  
SEXTON SUMMIT  SUNNY     70  40  33 VRB5      30.20S                  
GRANTS PASS    FAIR      81  37  21 N7G15     30.12F                  
MEDFORD        SUNNY     82  39  21 CALM      30.07F                  
$$

ORZ014>016-041-232300-
COLUMBIA GORGE

  
CITY           SKY/WX    TMP DP  RH WIND       PRES   REMARKS
TROUTDALE      CLOUDY    67  47  48 NW5       30.19F                  
HOOD RIVER     MOSUNNY   66  43  42 W6        30.15F                  
THE DALLES     SUNNY     71  44  37 W24G38    30.08S                  
$$

ORZ029>031-041-044-049-050-061>064-502-503-505>511-232300-
EASTERN OREGON

  
CITY           SKY/WX    TMP DP  RH WIND       PRES   REMARKS
MADRAS         SUNNY     70  36  28 NW18G26   30.11S                  
REDMOND        SUNNY     75  37  25 NW14G25   30.09F                  
BEND           SUNNY     73  36  25 NW15      30.09F                  
PRINEVILLE     SUNNY     70  36  28 N17       30.08F                  
KLAMATH FALLS  SUNNY     77  37  23 NW6       30.11F                  
LAKEVIEW       SUNNY     75  32  20 W16G23    30.11F                  
HERMISTON      PTSUNNY   80  44  27 W14G22    29.98F                  
PENDLETON      CLOUDY    73  41  31 W6        30.00F                  
JOHN DAY       SUNNY     71  37  28 W15G21    30.07F                  
MEACHAM        PTSUNNY   61  38  42 VRB7      30.08F                  
LA GRANDE      CLOUDY    65  43  44 NE8       30.06F                  
BAKER CITY     SUNNY     69  43  38 NW13G18   30.05F                  
BURNS          SUNNY     74  30  19 NW15G23   30.06F                  
ROME             N/A     77  24  14 VRB6G16   30.02F                  
ONTARIO        SUNNY     80  35  19 N8        29.97F                  
$$